Regional Weather Roundup
Issued by NWS

Home | Current Version | Previous Version | Text Only | Print | Product List | Glossary On
Versions: 1 2 3 4 5 6 7 8 9 10 11 12 13 14 15 16 17 18 19 20 21 22 23 24 25 26 27 28 29 30 31 32 33 34 35 36 37 38 39 40 41 42 43 44 45 46 47 48 49 50
000
ASUS44 KMEG 160110
RWRTN
TENNESSEE HOURLY STATE WEATHER ROUNDUP
NATIONAL WEATHER SERVICE MEMPHIS TN
800 PM CDT MON SEP 15 2014

TNZ002-004-019-021-049-052-054-088>092-160200-
WEST TENNESSEE

CITY           SKY/WX    TMP DP  RH WIND       PRES   REMARKS
MEMPHIS INTL   CLOUDY    77  63  61 CALM      30.11R
NWS MEMPHIS      N/A     73 N/A N/A MISG        N/A
JACKSON        CLOUDY    69  65  86 CALM      30.11R
DYERSBURG      MOCLDY    66  55  68 CALM      30.11R
UNION CITY     CLEAR     66  63  88 S7        30.07F
PARIS          CLEAR     63  59  88 CALM      30.12R
HUNTINGDON     CLOUDY    65  62  90 CALM      30.12R
LEXINGTON      CLEAR     70  66  88 CALM      30.11R
SAVANNAH       CLEAR     72  72 100 CALM      30.12R
$$

TNZ008-025-027-028-033-062-065-066-160200-
NORTH MIDDLE TENNESSEE

CITY           SKY/WX    TMP DP  RH WIND       PRES   REMARKS
NASHVILLE      CLOUDY    68  64  87 S3        30.12R
DICKSON        CLOUDY    64  63  94 CALM      30.12
PORTLAND       PTCLDY    66  63  88 CALM      30.10S
CLARKSVILLE    MOCLDY    67  62  84 S6        30.10R
LEBANON        CLOUDY    67  64  90 CALM      30.11
SMYRNA         CLOUDY    68  64  86 CALM      30.13R
MURFREESBORO   CLOUDY    70  65  84 CALM      30.11S
COOKEVILLE     CLEAR     66  64  94 CALM      30.13F
LIVINGSTON     CLOUDY    65  65 100 SW3       30.15
GALLATIN       CLOUDY    68  66  93 CALM      30.12S
CROSSVILLE     CLOUDY    67  63  87 CALM      30.17S
$$

TNZ061-075-076-078-094-096-097-160200-
SOUTH MIDDLE TENNESSEE

CITY           SKY/WX    TMP DP  RH WIND       PRES   REMARKS
LEWISBURG      CLOUDY    71  67  87 CALM      30.11F
FAYETTEVILLE   MOCLDY    73  68  83 NE3       30.12F
TULLAHOMA      PTCLDY    72  66  83 CALM      30.15S
WINCHESTER     CLOUDY    73  68  83 CALM      30.15R
MCMINNVILLE    CLEAR     72  72 100 CALM      30.14S
COLUMBIA       CLEAR     72  68  88 CALM      30.11R
SHELBYVILLE    CLEAR     72  66  83 CALM      30.13S
$$

TNZ017-018-042-046-047-160200-
NORTHEAST TENNESSEE

CITY           SKY/WX    TMP DP  RH WIND       PRES   REMARKS
TRI CITIES     CLOUDY    68  64  87 W3        30.15R
ELIZABETHTON   DRIZZLE   64  63  94 CALM      30.16R
$$

TNZ012-013-036-069-073-074-160200-
CENTRAL EAST TENNESSEE

CITY           SKY/WX    TMP DP  RH WIND       PRES   REMARKS
KNOXVILLE      CLOUDY    72  68  87 SW5       30.12S
OAK RIDGE      CLOUDY    71  69  93 S3        30.14S
GATLINBURG     PTCLDY    70  66  88 CALM      30.13S
MORRISTOWN     CLEAR     70  68  94 CALM      30.15S
$$

TNZ083-085-099-160200-
SOUTHEAST TENNESSEE

CITY           SKY/WX    TMP DP  RH WIND       PRES   REMARKS
CHATTANOOGA    CLOUDY    74  69  85 N6        30.13S
$$

SKY/WX REPORTED AS FAIR MEANS FEW OR NO CLOUDS BELOW
12 THOUSAND FEET.



USA.gov is the U.S. government's official web portal to all federal, state and local government web resources and services.